Home > Weather > Makkah > Past weeks

Flag for Saudi Arabia Weather for the Past 2 Weeks in Makkah, Saudi Arabia

Now
82 °F

Sunny.


Feels Like: 83 °F
Forecast: 56 / 89 °F
Wind: 7 mph from Northwest

Location: Mecca Airport

Current Time: Feb 8, 2016 at 6:08:33 PM

Latest Report: Feb 8, 2016 at 5:00 PM


Visibility: 10 mi

Pressure: 29.98 "Hg

Humidity: 48%

Dew point: 61 °F

Location of MakkahLocation

Historic Weather in Makkah — Graph

°F

Makkah Temperature Yesterday

Maximum temperature yesterday: 86 °F (at 3:00 PM)
Minimum temperature yesterday: 68 °F (at 11:00 PM)
Average temperature yesterday: 76 °F

High & Low Weather Summary for the Past Weeks

 TemperatureHumidityPressure
High97 °F (Feb 4, 3:00 PM)94% (Feb 6, 5:00 AM)30.15 "Hg (Feb 6, 5:00 AM)
Low55 °F (Jan 29, 8:00 AM)39% (Feb 4, 12:00 PM)29.86 "Hg (Feb 6, 3:00 PM)
Average74 °F63%30.02 "Hg
* Reported Jan 24 5:00 PM — Feb 8 5:00 PM, Makkah, Weather by CustomWeather, © 2016

Note: Actual official high and low records may vary slightly from our data, if they occured in-between our weather recording intervals... More about our weather records

Advertising

Makkah Weather History for the Previous 24 Hours

 ConditionsComfort  
Time TempWeatherWind HumidityBarometerVisibility
5:00 PM
Mon, Feb 8
82 °FSunny.7 mph48%29.98 "Hg10 mi
4:00 PM84 °FSunny.2 mph48%29.95 "Hg10 mi
3:00 PM84 °FSunny.2 mph43%29.98 "Hg10 mi
2:00 PM82 °FSunny.5 mph42%30.01 "Hg10 mi
1:00 PM81 °FSunny.2 mph42%30.01 "Hg10 mi
12:00 PM77 °FSunny.3 mph44%30.04 "Hg10 mi
11:00 AM72 °FSunny.2 mph61%30.07 "Hg10 mi
10:00 AM68 °FSunny.2 mph56%30.07 "Hg10 mi
9:00 AM63 °FSunny.3 mph68%30.07 "Hg10 mi
8:00 AM63 °FSunny.2 mph64%30.04 "Hg10 mi
7:00 AM63 °FSunny.5 mph68%30.04 "Hg10 mi
6:00 AM63 °FClear.6 mph68%30.01 "Hg10 mi
5:00 AM64 °FClear.6 mph64%30.01 "Hg10 mi
4:00 AM64 °FClear.5 mph64%30.01 "Hg10 mi
3:00 AM66 °FClear.No wind60%30.01 "Hg10 mi
2:00 AM66 °FClear.No wind60%30.01 "Hg10 mi
1:00 AM66 °FClear.3 mph68%30.01 "Hg10 mi
12:00 AM68 °FClear.No wind69%30.04 "Hg10 mi
11:00 PM
Sun, Feb 7
68 °FClear.5 mph69%30.04 "Hg10 mi
10:00 PM70 °FClear.5 mph69%30.04 "Hg10 mi
9:00 PM72 °FClear.5 mph65%30.01 "Hg10 mi
8:00 PM73 °FClear.5 mph61%30.01 "Hg10 mi
7:00 PM75 °FClear.5 mph61%29.98 "Hg10 mi
6:00 PM77 °FSunny.3 mph57%29.98 "Hg10 mi
Weather by CustomWeather, © 2016

See weather overviewHow to use our weather pages